Regional Weather Roundup
Issued by NWS

Home | Current Version | Previous Version | Text Only | Print | Product List | Glossary On
Versions: 1 2 3 4 5 6 7 8 9 10 11 12 13 14 15 16 17 18 19 20 21 22 23 24 25 26 27
000
ASPQ40 PGUM 201912
RWRPQ
WEATHER ROUNDUP FOR THE MARIANAS AND MICRONESIA
NATIONAL WEATHER SERVICE TIYAN GU
500 AM CHST MON AUG 21 2017

GUZ001>004-202000-
MARIANA ISLANDS-

CITY           SKY/WX    TMP DP  RH WIND       PRES   REMARKS
GUAM AIRPORT   LGT RAIN  77  77 100 S6        29.80S FOG
ANDERSEN AFB   PTCLDY    75  73  94 CALM      29.86R
ROTA AIRPORT   NOT AVBL
TINIAN AP      NOT AVBL
SAIPAN AP      LGT RAIN  81  75  83 NE3       29.79R

$$

PMZ161-202000-
REPUBLIC OF PALAU-

CITY           SKY/WX    TMP DP  RH WIND       PRES   REMARKS
KOROR AP       CLOUDY    81  75  83 CALM      29.75R
KOROR WSO      CLOUDY    81  77  89 S8        29.76R

$$

PMZ171>174-202000-
FEDERATED STATES OF MICRONESIA-

CITY           SKY/WX    TMP DP  RH WIND       PRES   REMARKS
YAP AIRPORT    CLOUDY    77  75  94 CALM      29.77R
CHUUK AP       PTCLDY    77  73  88 VRB3      29.75S
POHNPEI AP     NOT AVBL
POHNPEI WSO    PTCLDY    73  73 100 S5        29.80R
KOSRAE AP      NOT AVBL

$$

PMZ181-202000-
REPUBLIC OF THE MARSHALL ISLANDS-

CITY           SKY/WX    TMP DP  RH WIND       PRES   REMARKS
KWAJALEIN AP   CLEAR     81  73  78 NE6       29.80R
MAJURO AP      NOT AVBL
MAJURO WSO     MOCLDY    79  75  89 CALM      29.78R

$$





USA.gov is the U.S. government's official web portal to all federal, state and local government web resources and services.